FW2102 Weather Reports


Display with metric or nautical units.
time (UTC)temp
F
wind
direction
speed
MPH
gust
MPH
rain 1hr
in
rain 24hr
in
rain mn
in
humidity
%
barometer
mb
20180715192123 91 221 1.0 4.0 0.00 0.00 0.63 58 1010.7
20180715191123 91 108 2.0 5.0 0.00 0.00 0.63 57 1010.7
20180715190125 91 218 2.0 5.0 0.00 0.00 0.63 59 1010.7
20180715185123 89 154 2.0 4.0 0.00 0.00 0.63 59 1010.8
20180715184122 90 252 1.0 3.0 0.00 0.00 0.63 59 1011.0
20180715183124 88 243 2.0 4.0 0.00 0.00 0.63 65 1011.2
20180715182123 88 59 2.0 4.0 0.00 0.00 0.63 62 1011.2
20180715181123 89 79 1.0 2.0 0.00 0.00 0.63 63 1011.2
20180715180123 86 107 1.0 2.0 0.00 0.00 0.63 63 1011.2
20180715175123 87 250 2.0 4.0 0.00 3.17 0.63 67 1011.3
20180715174122 86 212 1.0 3.0 0.00 3.17 0.63 68 1011.5
20180715173125 88 106 0.0 2.0 0.00 3.17 0.63 62 1011.5
20180715172122 87 81 0.0 2.0 0.00 3.17 0.63 67 1011.7
20180715171127 86 111 1.0 3.0 0.00 3.17 0.63 67 1011.7
20180715170123 85 123 1.0 2.0 0.00 3.17 0.63 73 1011.7
20180715165123 84 109 0.0 2.0 0.00 3.17 0.63 73 1011.8
20180715164123 84 202 0.0 4.0 0.00 3.17 0.63 71 1012.0
20180715163124 85 232 1.0 3.0 0.00 3.17 0.63 72 1011.7
20180715162123 83 205 1.0 13.0 0.00 3.17 0.63 70 1011.8
20180715161127 85 190 1.0 2.0 0.00 3.17 0.63 71 1012.0
20180715160123 83 171 1.0 2.0 0.00 3.17 0.63 72 1012.0
20180715155123 85 200 1.0 3.0 0.00 3.17 0.63 71 1012.0
20180715154124 85 170 1.0 2.0 0.00 3.17 0.63 74 1012.0
20180715153123 83 211 1.0 3.0 0.00 3.17 0.63 76 1012.0
20180715152124 82 242 2.0 3.0 0.00 3.17 0.63 78 1012.0
20180715151123 81 228 1.0 3.0 0.00 3.17 0.63 78 1012.0
20180715150123 81 216 2.0 21.0 0.00 3.17 0.63 76 1012.0
20180715145123 81 250 2.0 4.0 0.00 3.17 0.63 78 1012.2
20180715144126 80 148 0.0 2.0 0.00 3.17 0.63 83 1012.2
20180715143124 79 182 1.0 2.0 0.00 3.17 0.63 85 1012.2
20180715142124 79 23 0.0 0.0 0.00 3.17 0.63 82 1012.2
20180715141126 79 261 0.0 2.0 0.00 3.17 0.63 79 1012.2
20180715140126 79 91 1.0 2.0 0.00 3.17 0.63 85 1012.2
20180715135124 79 114 1.0 3.0 0.00 3.17 0.63 87 1012.2
20180715134126 79 107 1.0 3.0 0.00 3.17 0.63 88 1012.2
20180715133123 76 179 0.0 3.0 0.00 3.17 0.63 94 1012.3
20180715132123 74 123 1.0 3.0 0.00 3.17 0.63 96 1012.5
20180715131124 73 202 0.0 4.0 0.00 3.17 0.63 98 1012.5
20180715130124 73 202 1.0 3.0 0.00 3.17 0.63 97 1012.5
20180715125123 73 202 0.0 2.0 0.00 3.17 0.63 97 1012.5
20180715124123 73 202 1.0 3.0 0.00 3.17 0.63 99 1012.5
20180715123125 72 203 0.0 0.0 0.00 3.17 0.63 99 1012.7
20180715122123 71 202 0.0 3.0 0.00 3.17 0.63 99 1012.7
20180715121123 71 203 0.0 0.0 0.00 3.17 0.63 99 1012.8
20180715120125 71 203 0.0 0.0 0.00 3.17 0.63 99 1012.8
20180715115127 71 203 0.0 0.0 0.00 3.17 0.63 99 1012.8
20180715114123 71 202 0.0 3.0 0.00 3.17 0.63 99 1012.8
20180715113126 70 203 0.0 0.0 0.00 3.17 0.63 99 1013.0
20180715112122 69 203 0.0 0.0 0.00 3.17 0.63 99 1013.2
20180715111123 68 113 0.0 0.0 0.00 3.17 0.63 99 1013.2
20180715110122 68 180 0.0 0.0 0.00 3.17 0.63 99 1013.2
20180715105122 68 180 0.0 0.0 0.00 3.17 0.63 99 1013.0
20180715104123 68 113 0.0 2.0 0.00 3.17 0.63 99 1013.2
20180715103123 68 180 0.0 0.0 0.00 3.17 0.63 99 1013.0
20180715102122 67 203 0.0 0.0 0.00 3.17 0.63 99 1012.8
20180715101325 67 203 0.0 0.0 0.00 3.17 0.63 99 1012.7
20180715100124 67 203 0.0 0.0 0.00 3.17 0.63 99 1012.7
20180715095123 67 203 0.0 0.0 0.00 3.17 0.63 99 1012.8
20180715094123 68 203 0.0 0.0 0.00 3.17 0.63 99 1012.7
20180715093123 68 202 0.0 2.0 0.00 3.17 0.63 99 1012.7
20180715092122 68 203 0.0 0.0 0.14 3.17 0.63 99 1012.5
20180715091122 68 203 0.0 0.0 0.39 3.17 0.63 99 1012.5
20180715090226 68 202 0.0 2.0 0.41 3.17 0.63 99 1012.5
20180715085125 68 203 0.0 0.0 0.43 3.17 0.63 99 1012.5
20180715084125 68 202 0.0 2.0 0.57 3.17 0.63 99 1012.5
20180715083132 68 192 1.0 3.0 0.59 3.17 0.63 99 1012.2
20180715082125 68 209 1.0 3.0 0.45 3.03 0.49 99 1012.7
20180715081124 68 44 0.0 2.0 0.20 2.78 0.24 99 1013.0
20180715080125 68 72 0.0 2.0 0.18 2.76 0.22 99 1013.2
20180715075126 68 202 0.0 2.0 0.17 2.74 0.20 99 1013.2
20180715074127 68 202 0.0 3.0 0.04 2.61 0.07 99 1013.3
20180715073125 67 180 0.0 0.0 0.01 2.58 0.04 99 1013.0
20180715072125 67 180 0.0 0.0 0.02 2.58 0.04 99 1012.8
20180715071130 68 180 0.0 0.0 0.03 2.58 0.04 99 1013.0
20180715070128 68 135 0.0 0.0 0.03 2.58 0.04 99 1013.0
20180715065125 68 158 0.0 0.0 0.02 2.57 0.03 99 1013.0
20180715064126 68 90 0.0 0.0 0.02 2.57 0.03 99 1013.2
20180715063125 68 152 0.0 2.0 0.02 2.57 0.03 99 1013.2
20180715062128 68 126 0.0 2.0 0.01 2.56 0.02 99 1013.3
20180715061125 68 180 0.0 2.0 0.01 2.55 0.01 99 1013.5
20180715060126 68 180 0.0 0.0 0.01 2.55 0.01 99 1013.5
20180715055125 68 180 0.0 0.0 0.01 2.55 0.01 99 1013.5
20180715054124 68 90 0.0 0.0 0.01 2.55 0.01 99 1013.7
20180715053128 68 180 0.0 0.0 0.01 2.55 0.01 99 1013.5
20180715052126 68 180 0.0 0.0 0.01 2.55 0.01 99 1014.0
20180715051128 67 180 0.0 2.0 0.00 2.54 0.00 99 1013.8
20180715050125 67 180 0.0 0.0 0.00 2.54 0.00 99 1013.8
20180715045124 67 180 0.0 0.0 0.00 2.54 0.00 99 1013.7
20180715044125 67 180 0.0 2.0 0.00 2.54 0.00 99 1014.0
20180715043128 72 180 0.0 0.0 0.00 2.54 0.00 94 1014.0
20180715042125 67 180 0.0 0.0 0.00 2.54 0.00 99 1014.2
20180715041126 67 180 0.0 0.0 0.00 2.54 0.00 99 1014.0
20180715040125 67 180 0.0 0.0 0.00 2.54 0.00 99 1014.0
20180715035125 67 180 0.0 2.0 0.00 2.54 2.54 99 1014.0
20180715034125 67 113 0.0 0.0 0.00 2.54 2.54 99 1014.0
20180715033127 67 90 0.0 0.0 0.00 2.54 2.54 99 1014.2
20180715032126 67 90 0.0 0.0 0.00 2.54 2.54 99 1014.2
20180715031125 67 90 0.0 0.0 0.00 2.54 2.54 99 1014.3
20180715030125 67 90 0.0 0.0 0.05 2.54 2.54 99 1014.3
20180715025125 67 90 0.0 0.0 0.10 2.54 2.54 99 1014.2
20180715024126 67 180 0.0 0.0 0.10 2.54 2.54 99 1014.0
20180715023125 67 180 0.0 0.0 0.10 2.54 2.54 99 1013.8
20180715022129 67 180 0.0 0.0 0.10 2.54 2.54 99 1014.0
20180715021125 67 180 0.0 0.0 0.10 2.54 2.54 99 1013.8
20180715020125 67 180 0.0 2.0 0.05 2.49 2.49 99 1013.8
20180715015126 67 23 0.0 0.0 0.00 2.44 2.44 99 1013.7
20180715014125 67 180 0.0 0.0 0.03 2.44 2.44 99 1013.5
20180715013125 67 180 0.0 2.0 0.07 2.44 2.44 99 1013.5
20180715012128 67 180 0.0 0.0 0.09 2.44 2.44 94 1013.7
20180715011124 67 180 0.0 0.0 0.30 2.44 2.44 99 1013.5
20180715010125 67 180 0.0 0.0 0.71 2.44 2.44 99 1013.5
20180715005124 67 113 0.0 0.0 2.44 2.44 2.44 99 1013.7
20180715004126 67 135 0.0 0.0 2.42 2.42 2.42 99 1014.0
20180715003125 67 113 0.0 0.0 2.37 2.37 2.37 98 1014.0
20180715002125 67 106 1.0 3.0 2.35 2.35 2.35 98 1014.8
20180715001127 68 206 1.0 3.0 2.17 2.17 2.17 98 1015.3
20180715000125 68 244 3.0 5.0 1.73 1.73 1.73 97 1014.2